This is the latest recevied weather packets stored in our database for station/object N3AVN. If no packets are shown the sender has not sent any weather packets the latest 10 day(s).
| Time | Temp. | Humidity | Pressure | Rain* | Wind** | Luminosity | Snow |
|---|---|---|---|---|---|---|---|
| 1778091878 | 15.56° C | 95% | 1006 hPa | 0.51 mm | - | 139 W/m² | - |
| 1778091575 | 15° C | 95% | 1005.9 hPa | 0.51 mm | - | 108 W/m² | - |
| 1778091274 | 15° C | 95% | 1005.9 hPa | 0 mm | - | 75 W/m² | - |
| 1778090970 | 15° C | 95% | 1006 hPa | 0 mm | - | 86 W/m² | - |
| 1778090666 | 15° C | 95% | 1006.1 hPa | 0.51 mm | - | 91 W/m² | - |
| 1778090363 | 15.56° C | 95% | 1006.1 hPa | 0.51 mm | - | 91 W/m² | - |
| 1778090060 | 15.56° C | 94% | 1005.9 hPa | 0 mm | - | 89 W/m² | - |
| 1778089757 | 15.56° C | 94% | 1006.1 hPa | 0.51 mm | - | 98 W/m² | - |
| 1778089454 | 15.56° C | 93% | 1006 hPa | 0.51 mm | - | 62 W/m² | - |
| 1778089151 | 15.56° C | 93% | 1006.1 hPa | 1.78 mm | - | 81 W/m² | - |
| 1778088848 | 15.56° C | 93% | 1006.6 hPa | 1.78 mm | - | 66 W/m² | - |
| 1778088545 | 16.11° C | 92% | 1006.3 hPa | 1.27 mm | - | 99 W/m² | - |
| 1778088241 | 16.67° C | 91% | 1006.6 hPa | 1.27 mm | - | 79 W/m² | - |
| 1778087939 | 16.67° C | 89% | 1006.6 hPa | 1.27 mm | - | 71 W/m² | - |
| 1778087636 | 16.67° C | 87% | 1006.7 hPa | 1.27 mm | - | 59 W/m² | - |
| 1778087334 | 17.22° C | 86% | 1007 hPa | 0.51 mm | - | 57 W/m² | - |
| 1778087029 | 17.78° C | 85% | 1007 hPa | 0 mm | - | 53 W/m² | - |
| 1778086723 | 17.78° C | 83% | 1006.7 hPa | 0 mm | - | 71 W/m² | - |
| 1778086421 | 18.33° C | 81% | 1007.2 hPa | 0 mm | - | 67 W/m² | - |
| 1778086112 | 18.33° C | 80% | 1007 hPa | 0 mm | - | 81 W/m² | - |
| 1778085808 | 18.89° C | 79% | 1007 hPa | 0 mm | - | 91 W/m² | - |
| 1778085506 | 18.89° C | 77% | 1006.8 hPa | 0 mm | - | 175 W/m² | - |
| 1778085200 | 18.89° C | 77% | 1006.9 hPa | 0 mm | - | 150 W/m² | - |
| 1778084896 | 18.89° C | 77% | 1006.9 hPa | 0 mm | - | 133 W/m² | - |
| 1778084594 | 19.44° C | 76% | 1006.7 hPa | 0 mm | - | 115 W/m² | - |
* Rain latest hour (hover to see other rain measurements)
** Current wind speed in m/s (hover to see current wind gust speed)